Terminal Aerodrome Forecast
Issued by NWS

Current Version | Previous Version | Text Only | Print | Product List | Glossary On
Versions: 1 2 3 4 5 6 7 8 9 10 11 12 13 14 15 16 17 18 19 20 21 22
942
FTUS45 KRIW 241527 AAA
TAFJAC
TAF AMD
KJAC 241527Z 2415/2512 03010KT 3SM -SN SCT015 OVC020
      TEMPO 2415/2419 1SM -SN OVC015
     FM242200 VRB04KT 1 1/2SM -SN SCT008 OVC013
     FM250200 01007KT 5SM -SN SCT013 OVC020
      AMD LTD TO CLD VIS AND WIND=

USA.gov is the U.S. government's official web portal to all federal, state and local government web resources and services.